Location: Turtle Rock Observatory
(36.6913°N, 81.9708°W)
Time: 11:56:35
(UTC-04:00)

TITAN 4B R/B - Visible Passes

Search period start: 29 July 2015 00:00
Search period end: 08 August 2015 00:00
Orbit: 463 x 651 km, 57.0° (Epoch: 28 July)

Date Brightness Start Highest point End Pass type
(mag) Time Alt. Az. Time Alt. Az. Time Alt. Az.
29 Jul 3.3 03:07:38 27° N 03:07:38 27° N 03:10:17 10° NNE visible
30 Jul 3.6 03:04:34 22° NNW 03:04:34 22° NNW 03:07:07 10° NNE visible
31 Jul 3.8 03:01:25 18° NNW 03:01:25 18° NNW 03:03:52 10° N visible
01 Aug 4.5 01:22:27 11° NE 01:22:27 11° NE 01:22:33 10° NE visible
01 Aug 4.0 02:58:14 15° NNW 02:58:14 15° NNW 03:00:30 10° N visible
02 Aug 4.4 01:19:13 12° NNE 01:19:13 12° NNE 01:19:33 10° NE visible
02 Aug 4.3 02:54:59 12° NW 02:55:23 12° NNW 02:56:53 10° N visible
03 Aug 4.4 01:15:54 13° NNE 01:15:54 13° NNE 01:16:30 10° NNE visible
04 Aug 4.3 01:12:29 15° NNE 01:12:29 15° NNE 01:13:22 10° NNE visible
05 Aug 4.3 01:08:57 16° N 01:08:57 16° N 01:10:10 10° NNE visible
06 Aug 4.3 01:05:13 16° N 01:05:13 16° N 01:06:53 10° N visible
06 Aug 4.2 06:05:18 10° N 06:07:29 14° NNE 06:09:41 10° ENE visible
06 Aug 4.2 23:25:24 11° NE 23:25:24 11° NE 23:25:30 10° NE visible
07 Aug 4.3 01:01:05 15° NNW 01:01:05 15° NNW 01:03:29 10° N visible
07 Aug 4.1 06:01:53 10° N 06:04:42 19° NE 06:07:30 10° E visible
07 Aug4.521:44:39ENE21:44:39ENE21:33:38Svisible
07 Aug 3.1 23:20:14 28° NNE 23:20:14 28° NNE 23:22:28 10° NNE visible
